Home   Weather   Braunschweig   Past weeks

Flag for Germany Past Weather in Braunschweig, Lower Saxony, Germany — Yesterday and Last 2 Weeks

Now
54 °F

Broken clouds.


Feels Like: 51 °F
Forecast: 41 / 49 °F
Wind: 9 mph from South

Location: Braunschweig Wolfsburg

Current Time: Feb 27, 2017 at 5:24:38 pm

Latest Report: Feb 27, 2017 at 4:50 pm


Visibility: N/A

Pressure: 29.45 "Hg

Humidity: 54%

Dew Point: 37 °F

Location of BraunschweigLocation

Past Weather in Braunschweig — Graph

°F

Braunschweig Temperature Yesterday

Maximum temperature yesterday: 50 °F (at 11:50 am)
Minimum temperature yesterday: 45 °F (at 8:20 am)
Average temperature yesterday: 49 °F

High & Low Weather Summary for the Past Weeks

 TemperatureHumidityPressure
High57 °F (Feb 27, 2:50 pm)100% (Feb 14, 7:20 am)30.60 "Hg (Feb 14, 7:20 am)
Low21 °F (Feb 14, 7:20 am)40% (Feb 15, 1:20 pm)29.12 "Hg (Feb 23, 6:50 pm)
Average42 °F83%30.04 "Hg
* Reported Feb 12 4:20 pm — Feb 27 4:20 pm, Braunschweig, Weather by CustomWeather, © 2017

Note: Actual official high and low records may vary slightly from our data, if they occured in-between our weather recording intervals... More about our weather records

Advertising

Braunschweig Weather History for the Previous 24 Hours

Scroll right to see more
 ConditionsComfort  
Time TempWeatherWind HumidityBarometerVisibility
4:20 pm
Mon, Feb 27
54 °FPartly sunny.14 mph54%29.47 "HgN/A
3:50 pm54 °FScattered clouds.14 mph54%29.47 "HgN/A
3:20 pm57 °FScattered clouds.13 mph51%29.50 "HgN/A
2:50 pm57 °FScattered clouds.12 mph51%29.50 "HgN/A
2:20 pm55 °FScattered clouds.13 mph55%29.53 "HgN/A
1:20 pm55 °FPartly sunny.12 mph55%29.56 "HgN/A
12:50 pm54 °FPartly sunny.13 mph58%29.59 "HgN/A
12:20 pm54 °FPartly sunny.13 mph58%29.59 "HgN/A
11:20 am54 °FPartly sunny.12 mph58%29.65 "HgN/A
10:50 am52 °FPartly sunny.8 mph67%29.65 "HgN/A
10:20 am52 °FPartly sunny.5 mph67%29.68 "HgN/A
9:20 am52 °FPartly sunny.8 mph62%29.71 "HgN/A
8:20 am50 °FPartly sunny.6 mph67%29.71 "HgN/A
7:50 am50 °FPartly sunny.7 mph67%29.71 "HgN/A
7:20 am48 °FOvercast.6 mph71%29.71 "HgN/A
6:50 am50 °FOvercast.8 mph67%29.71 "HgN/A
6:50 pm
Sun, Feb 26
50 °FPassing clouds.6 mph71%29.83 "HgN/A
6:20 pm50 °FPassing clouds.6 mph76%29.83 "HgN/A
5:20 pm50 °FPartly sunny.8 mph76%29.80 "HgN/A
Weather by CustomWeather, © 2017

See weather overviewHow to use our weather pages